Content
SEND FEEDBACK

Daily
Averages
Monthly
Summary
Philippines

BOOT, PHILIPPINES


Home > Asia > Philippines
Elevation: 36 feet     Latitude: 14 04N     Longitude: 121 03E

WEATHER
 
SELECT A DAY
Number of Records: 172,482;   Date Range: 7/1/96 - 7/26/14
 
SHARE

PRINT THIS DATA

[ ← Previous Day ]
WEATHER ALMANAC - JANUARY 1, 2013
[ Next Day → ]
[ °C ]   °F
Weather ElementAverageHighLow
Temperature79.5 °F84.2 °F (4:00 pm)77 °F (1:00 am)
Dewpoint71.4 °F75.2 °F (2:00 pm)68 °F (5:00 am)
Humidity74.7 %84 % (2:00 pm)64 % (8:00 am)
Barometer29.88 in29.94 in (11:00 pm)29.83 in (2:00 am)
Wind Speed5.4 mph11.5 mph (6:00 pm)
Weather ElementAverage
Visibility5.6 mi
Wind DirectionSSE (158.4 °)

Weather ElementTotal
Precipitation---
Cooling Degree Days15.6 (Base 65)
Growing Degree Days30.6 (Base 50)
Averaged from 32 records on January 1, 2013
WEATHER CONDITIONS BREAKOUT
WIND DIRECTION BREAKOUT
WEATHER BY HOUR - JANUARY 1, 2013
[ °C ]   °F
Local TimeTemperatureDewpointHumidityBarometerVisibilityWind DirectionWind SpeedGust SpeedPrecipitationEventsConditions
1:00 AM77.0 °F69.8 °F78 %29.86 in1.9 miSE (130°)3.5 mphSmoke
2:00 AM77.0 °F71.0 °F76 %29.85 in6.0 miCalmHaze
2:00 AM77.0 °F69.8 °F78 %29.83 in5.6 miCalmPartly Cloudy
3:00 AM77.0 °F71.6 °F83 %29.83 in6.2 miCalmMostly Cloudy
4:00 AM78.8 °F71.6 °F78 %29.83 in3.1 miWNW (300°)3.5 mphMostly Cloudy
5:00 AM78.0 °F68.0 °F65 %29.85 in6.0 miWNW (300°)4.5 mphHaze
5:00 AM78.8 °F68.0 °F69 %29.83 in5.6 miWNW (300°)4.6 mphOvercast
6:00 AM78.8 °F68.0 °F69 %29.86 in5.6 miVariable2.3 mphOvercast
7:00 AM78.8 °F69.8 °F74 %29.89 in6.2 miNW (310°)4.6 mphOvercast
8:00 AM80.0 °F70.0 °F64 %29.93 in6.0 miNNW (330°)4.5 mphHaze
8:00 AM80.6 °F69.8 °F70 %29.92 in6.2 miNNW (330°)4.6 mphMostly Cloudy
9:00 AM80.6 °F69.8 °F70 %29.92 in6.2 miWSW (250°)4.6 mphOvercast
10:00 AM80.6 °F69.8 °F70 %29.92 in6.2 miWest (260°)5.8 mphMostly Cloudy
10:22 AM78.8 °F71.6 °F78 %29.92 in5.6 miSSW (210°)3.5 mphRainLight Rain Showers
11:00 AM79.0 °F71.0 °F70 %29.93 in6.0 miNNW (330°)4.5 mphRainLight Rain
11:00 AM78.8 °F71.6 °F78 %29.92 in5.6 miNNW (330°)4.6 mphOvercast
12:00 PM80.6 °F73.4 °F79 %29.89 in6.2 miNW (320°)8.1 mphMostly Cloudy
1:00 PM78.8 °F73.4 °F83 %29.86 in5.0 miWest (270°)5.8 mphOvercast
2:00 PM80.0 °F74.0 °F78 %29.86 in6.0 miENE (60°)6.7 mphRainLight Rain
2:00 PM80.6 °F75.2 °F84 %29.86 in6.2 miENE (60°)8.1 mphRainLight Rain
3:00 PM82.4 °F73.4 °F74 %29.86 in6.2 miNE (40°)6.9 mphMostly Cloudy
4:00 PM84.2 °F71.6 °F66 %29.83 in6.2 miSE (130°)6.9 mphMostly Cloudy
5:00 PM83.0 °F73.0 °F64 %29.86 in6.0 miEast (100°)8.9 mphHaze
5:00 PM82.4 °F73.4 °F74 %29.86 in6.2 miEast (100°)9.2 mphMostly Cloudy
6:00 PM80.6 °F71.6 °F74 %29.86 in5.0 miENE (70°)11.5 mphRainLight Rain Showers
7:00 PM80.6 °F71.6 °F74 %29.89 in5.6 miEast (80°)5.8 mphMostly Cloudy
8:00 PM79.0 °F72.0 °F75 %29.91 in6.0 miENE (70°)6.7 mphHaze
8:00 PM78.8 °F71.6 °F78 %29.89 in5.6 miENE (70°)6.9 mphMostly Cloudy
9:00 PM78.8 °F73.4 °F83 %29.92 in5.0 miNE (50°)9.2 mphRainLight Rain Showers
10:00 PM78.8 °F71.6 °F78 %29.92 in5.6 miNNE (30°)6.9 mphMostly Cloudy
11:00 PM78.0 °F72.0 °F78 %29.94 in6.0 miNE (40°)4.5 mphHaze
11:00 PM78.8 °F71.6 °F78 %29.92 in5.6 miNE (40°)4.6 mphMostly Cloudy
Hourly data recorded from RPLL, located miles away from Boot, Philippines







STORIES FROM OUR PARTNERS